This is the latest recevied weather packets stored in our database for station/object N3EYQ. If no packets are shown the sender has not sent any weather packets the latest 10 day(s).
| Time | Temp. | Humidity | Pressure | Rain* | Wind** | Luminosity | Snow |
|---|---|---|---|---|---|---|---|
| 1777643970 | 12.22° C | 47% | 1012.7 hPa | 0 mm | - | - | - |
| 1777643370 | 12.78° C | 50% | 1013 hPa | 0 mm | - | - | - |
| 1777642770 | 12.22° C | 50% | 1013 hPa | 0 mm | - | - | - |
| 1777642169 | 12.78° C | 52% | 1013 hPa | 0 mm | - | - | - |
| 1777641569 | 12.22° C | 51% | 1013 hPa | 0 mm | - | - | - |
| 1777640969 | 12.22° C | 53% | 1013 hPa | 0 mm | - | - | - |
| 1777640369 | 12.22° C | 55% | 1013.3 hPa | 0 mm | - | - | - |
| 1777639769 | 11.11° C | 54% | 1013.3 hPa | 0 mm | - | - | - |
| 1777639169 | 11.11° C | 57% | 1013.3 hPa | 0 mm | - | - | - |
| 1777638569 | 11.11° C | 55% | 1013.3 hPa | 0 mm | - | - | - |
| 1777637968 | 10.56° C | 60% | 1013.3 hPa | 0 mm | - | - | - |
| 1777637368 | 10° C | 64% | 1013.3 hPa | 0 mm | - | - | - |
| 1777636769 | 10° C | 67% | 1013 hPa | 0 mm | - | - | - |
| 1777636168 | 9.44° C | 69% | 1013 hPa | 0 mm | - | - | - |
| 1777635568 | 8.33° C | 71% | 1013 hPa | 0 mm | - | - | - |
| 1777634968 | 7.78° C | 72% | 1013 hPa | 0 mm | - | - | - |
| 1777634368 | 7.22° C | 73% | 1013 hPa | 0 mm | - | - | - |
| 1777633768 | 6.67° C | 74% | 1013 hPa | 0 mm | - | - | - |
| 1777633167 | 6.67° C | 74% | 1013 hPa | 0 mm | - | - | - |
| 1777632567 | 5.56° C | 76% | 1012.7 hPa | 0 mm | - | - | - |
| 1777631967 | 4.44° C | 77% | 1012.7 hPa | 0 mm | - | - | - |
| 1777631367 | 3.33° C | 77% | 1012.7 hPa | 0 mm | - | - | - |
| 1777630767 | 3.89° C | 75% | 1012.7 hPa | 0 mm | - | - | - |
| 1777630167 | 3.89° C | 74% | 1012.7 hPa | 0 mm | - | - | - |
| 1777629568 | 4.44° C | 73% | 1012.7 hPa | 0 mm | - | - | - |
* Rain latest hour (hover to see other rain measurements)
** Current wind speed in m/s (hover to see current wind gust speed)